Theta_e
307 306 306 308 310 310 310 310 309 308 308 309 309 308 308 310 314 316 314 310 309 308 306 306 304 303 302 303 304 305 306 306 307 308 308 308 308 309 308 309 309 309 309 309 309 309 310 310 310 310 310 310 310 310 310 310 311 311 312 313 314 315 317 319 322 324 325 325 326 327 326 324 324 324
309 307 307 308 309 309 309 309 309 309 309 309 309 309 308 307 310 313 312 310 308 307 306 305 303 302 301 301 303 304 305 305 306 306 306 307 307 307 308 308 308 308 308 309 309 309 309 309 309 309 309 309 309 309 310 310 310 310 310 311 312 313 314 316 319 322 323 324 325 325 326 326 325 325
310 308 308 308 308 309 309 309 309 309 309 310 309 309 308 306 306 307 308 309 308 306 305 304 301 300 300 300 300 302 303 304 305 305 306 306 306 306 307 307 307 308 308 308 308 308 308 309 309 309 309 309 309 309 309 310 310 310 310 310 311 313 313 314 316 319 322 322 323 324 325 325 325 325
310 309 307 308 308 308 308 308 308 308 308 309 309 307 307 306 306 305 306 308 307 306 304 301 299 298 298 299 299 299 300 301 302 303 304 305 306 306 306 306 306 307 307 308 308 307 307 308 308 308 308 308 308 308 309 309 309 309 310 310 310 312 313 313 314 316 318 320 321 323 323 324 324 325
310 310 308 308 308 308 308 308 308 307 308 308 307 307 306 306 305 304 304 305 305 304 302 299 297 297 297 298 298 298 299 299 299 299 300 301 302 303 304 304 304 305 305 306 306 307 307 307 307 307 307 308 308 308 308 308 308 309 309 309 309 310 311 313 314 315 316 318 320 321 322 323 323 324
310 310 309 309 309 308 307 307 307 307 307 308 307 307 307 305 303 302 302 302 301 300 299 297 297 298 298 299 298 298 298 298 298 298 298 298 298 299 300 300 301 301 302 303 303 304 305 306 306 306 306 306 306 307 307 307 308 308 308 308 308 309 309 310 312 314 316 318 320 320 320 320 320 321
312 311 310 310 311 310 308 307 306 307 307 307 307 307 307 305 303 301 301 301 299 298 298 298 298 299 298 298 298 297 297 297 297 298 298 299 299 298 298 298 298 298 299 299 299 299 300 302 303 304 305 305 306 306 306 306 307 307 307 307 308 308 308 308 309 310 312 315 318 319 319 319 318 318
314 313 312 311 311 311 310 309 307 307 307 307 307 307 307 305 303 302 303 304 302 300 300 299 299 300 299 298 298 297 298 298 298 298 299 299 299 298 298 298 297 298 298 298 297 297 297 298 299 300 301 302 303 304 305 305 306 306 306 306 307 307 307 307 307 307 308 309 311 313 314 316 316 316
314 314 313 312 312 312 311 310 309 307 307 307 307 307 306 305 303 304 306 306 305 303 302 301 301 300 299 298 298 298 298 298 299 299 299 299 298 298 298 297 297 297 297 297 297 297 297 297 297 297 297 298 299 300 302 303 304 304 305 305 305 305 305 306 306 306 306 306 306 307 308 309 311 312
314 314 314 314 313 313 311 310 309 309 307 307 306 306 305 304 304 304 307 307 306 305 304 303 302 301 300 300 299 299 298 298 299 299 299 299 298 298 298 297 296 296 297 297 297 297 297 297 297 297 297 296 297 297 298 299 301 302 302 303 304 304 304 305 305 305 305 305 305 305 305 306 306 307
315 315 314 314 314 313 313 312 311 310 309 308 307 306 306 305 305 306 308 308 307 306 306 304 303 302 300 300 299 299 299 299 299 299 299 298 298 298 297 297 296 296 296 296 296 296 296 296 296 296 296 296 296 296 297 297 297 298 299 300 301 302 302 303 304 305 305 304 304 304 303 304 304 305
317 316 316 315 315 314 314 313 312 311 310 309 308 307 306 305 304 305 306 306 305 306 306 305 303 302 300 300 299 298 298 298 298 298 297 297 297 297 297 296 296 296 296 296 296 295 295 295 295 295 295 295 295 295 296 296 297 297 297 298 299 299 300 301 302 303 304 304 304 303 303 302 302 302
318 317 317 317 317 316 315 314 313 313 312 311 310 309 307 305 304 304 304 303 304 305 305 304 303 302 301 299 299 298 298 297 297 297 297 297 296 297 297 297 296 296 295 295 295 295 294 294 294 294 294 294 294 294 295 295 296 296 296 297 298 298 298 299 300 300 301 301 302 302 302 301 300 300
319 318 319 318 318 318 317 315 314 313 312 312 311 310 308 305 304 304 304 303 303 303 303 302 302 301 300 299 298 298 297 297 297 297 297 296 296 296 296 296 296 295 295 295 294 294 294 293 294 294 293 294 294 294 294 294 295 296 297 297 297 298 298 298 299 299 299 300 300 300 300 300 300 300
319 319 319 319 318 318 317 316 314 313 312 311 311 310 307 305 305 304 304 303 303 302 302 301 301 300 299 298 298 297 297 297 297 297 296 296 296 295 295 295 295 295 294 293 293 293 294 293 292 293 293 293 293 293 293 294 295 297 297 298 298 298 298 298 299 300 301 302 303 303 302 302 301 301
319 319 319 318 318 318 318 316 315 314 312 310 309 308 306 305 305 304 303 304 303 302 301 301 301 300 299 298 298 297 298 297 297 296 296 296 295 295 294 294 294 294 293 292 291 292 293 293 292 292 292 292 293 293 294 295 295 296 297 298 298 298 298 298 298 299 301 303 304 305 305 305 304 304
319 319 318 318 318 317 316 315 314 314 312 309 307 306 305 304 304 303 303 303 302 302 301 301 301 299 299 298 298 298 297 297 296 296 296 295 295 294 293 293 293 293 292 291 291 291 293 292 291 292 293 293 293 294 294 295 295 295 296 297 298 298 298 298 298 298 300 302 304 304 305 306 306 306
319 318 318 317 316 316 315 314 313 312 310 308 306 304 304 304 304 303 303 302 302 302 301 301 300 299 299 298 297 297 297 296 296 295 294 294 293 292 292 292 292 292 292 291 291 291 292 292 292 292 293 293 293 293 293 294 294 294 295 296 297 297 297 297 297 297 297 299 301 303 303 304 305 307
319 318 316 316 315 315 314 313 312 310 308 307 305 304 304 303 303 302 302 302 301 301 300 300 299 299 298 297 297 296 296 295 294 293 293 292 292 291 291 291 291 292 292 291 291 291 292 292 292 292 292 292 292 292 293 293 294 295 295 296 297 297 296 296 296 296 296 297 299 301 301 302 303 305
318 316 315 314 314 313 312 311 309 307 306 306 305 304 304 303 302 302 302 301 301 300 300 299 298 297 296 296 295 295 294 293 292 292 292 292 292 291 291 291 291 291 291 291 291 291 291 291 291 291 291 292 292 292 293 293 294 295 296 296 296 296 295 295 295 295 295 296 297 298 299 300 301 303
315 314 313 312 311 310 308 307 306 305 305 305 304 303 303 302 302 302 301 301 300 299 298 297 296 295 294 294 293 293 292 292 292 291 291 292 291 291 291 291 291 291 291 291 291 291 291 291 291 291 291 292 292 292 292 294 295 295 296 296 295 295 295 295 295 295 295 295 296 297 298 299 300 301
311 311 310 309 308 307 305 304 303 303 303 304 303 303 303 302 301 300 299 298 297 296 296 295 294 293 293 293 292 292 292 292 291 291 291 291 291 290 290 291 290 290 290 291 291 291 291 291 291 291 291 292 292 292 293 294 295 295 295 294 294 294 294 295 295 295 295 294 295 295 296 297 298 299
308 308 307 305 305 305 303 303 302 302 302 303 302 302 302 301 299 298 297 296 295 295 294 293 293 293 292 292 292 292 291 291 291 291 290 290 290 290 290 290 290 290 290 291 291 291 291 290 290 291 291 292 292 292 292 293 293 293 293 293 293 294 294 294 294 295 294 294 294 295 295 296 297 298
306 305 304 303 302 303 302 302 302 302 301 301 300 300 299 298 297 296 295 294 294 294 293 293 292 292 292 292 291 291 291 290 290 290 290 290 290 290 290 290 290 290 290 290 290 290 290 290 290 291 291 291 291 292 292 292 292 292 292 292 293 293 293 294 294 294 294 294 294 294 295 296 296 297
304 303 302 301 300 300 300 300 300 299 299 298 297 297 296 295 295 294 294 293 293 292 292 292 292 291 291 291 290 290 290 290 289 289 289 289 289 290 290 290 290 290 290 290 290 289 290 290 290 290 290 291 291 291 291 292 292 292 292 292 293 293 294 294 294 294 293 293 293 294 295 296 297 297
302 301 301 300 299 299 299 299 298 298 297 296 296 295 294 294 293 293 292 292 292 291 291 291 290 290 290 290 290 289 289 289 289 289 289 289 289 289 289 289 289 290 290 290 289 289 290 290 290 290 290 290 290 291 291 291 292 292 292 292 293 293 294 294 294 294 294 293 293 294 295 296 297 298
300 299 299 298 298 298 297 297 296 296 295 295 294 293 293 293 292 292 291 291 291 290 290 290 290 290 290 289 289 289 289 289 289 288 288 288 288 289 289 289 289 289 289 289 289 289 289 289 289 290 290 290 290 290 290 291 291 292 292 292 292 292 292 293 294 294 294 294 294 295 296 296 296 296
298 298 297 297 296 296 295 295 294 294 293 293 292 292 292 291 291 291 290 290 290 290 289 289 289 289 289 288 288 288 288 288 288 288 288 288 287 287 287 287 287 288 288 288 288 288 288 289 289 289 289 289 289 290 290 290 291 291 291 292 292 292 292 292 293 294 294 294 294 295 295 295 294 295
297 297 296 295 295 294 294 293 293 292 292 291 291 291 290 290 290 290 289 289 289 289 288 288 288 288 288 287 287 287 287 287 287 287 287 286 286 286 286 286 286 286 287 287 287 287 288 288 288 288 288 288 289 289 289 290 290 290 291 291 292 292 292 292 292 293 294 294 295 295 295 295 294 294
296 295 294 294 293 293 292 292 292 291 291 291 290 290 290 289 289 288 288 288 288 287 287 287 287 287 287 287 286 286 286 286 286 286 286 285 285 285 286 286 286 286 286 286 286 286 287 287 287 287 288 288 288 288 289 289 290 290 290 291 291 292 292 292 292 293 295 295 295 295 295 294 294 294
294 294 293 293 292 292 292 291 291 290 290 290 289 289 288 288 288 288 287 287 287 287 286 286 286 286 286 286 286 285 285 285 285 285 285 285 285 285 285 285 286 286 286 286 286 286 286 287 287 287 287 288 288 288 289 289 289 289 290 290 291 291 292 292 293 293 294 294 295 294 294 294 293 293
293 292 292 292 291 291 291 290 290 289 289 288 288 288 288 287 287 287 287 287 287 286 285 285 285 285 285 285 285 285 285 285 285 285 285 285 285 285 285 286 286 286 286 286 286 287 287 287 287 287 287 287 288 288 288 289 289 289 290 290 291 291 291 292 293 293 293 293 294 293 293 293 293 293
292 292 291 291 291 290 290 289 289 288 288 288 287 287 287 287 287 287 287 286 286 285 285 285 285 285 285 285 285 285 285 286 286 286 286 286 286 286 286 286 286 286 287 287 287 287 287 287 287 287 287 288 288 288 288 289 289 289 289 290 290 291 291 291 292 292 292 293 293 292 292 293 293 293
292 291 291 290 290 290 289 288 288 288 287 287 287 287 287 288 288 287 287 287 286 286 285 285 285 285 285 285 286 286 286 286 286 286 286 286 286 286 286 287 287 287 287 287 287 287 287 287 287 288 288 288 288 288 288 289 289 289 289 290 290 290 290 291 291 291 292 292 292 292 292 293 293 293
291 291 290 290 289 289 288 288 287 287 287 287 287 287 288 288 287 287 287 287 287 286 286 286 286 286 286 286 286 286 286 286 286 286 286 287 287 287 287 287 287 287 287 287 287 287 287 287 288 288 288 288 288 288 289 289 289 289 290 290 290 290 290 290 291 291 291 291 292 292 292 293 293 294
291 291 290 289 289 288 288 287 287 287 287 287 287 287 287 287 287 287 287 287 287 286 286 286 286 286 286 286 286 286 286 286 287 287 287 287 287 287 287 287 287 287 287 287 287 287 288 288 288 288 288 288 288 288 289 289 289 289 290 290 290 290 290 291 291 291 291 292 292 292 293 293 294 294
290 290 289 289 288 288 287 287 287 287 286 286 286 286 286 286 287 287 288 288 288 287 286 286 286 286 286 286 286 286 286 286 287 287 287 287 287 287 287 287 287 287 287 287 288 288 288 288 288 288 288 288 288 288 289 289 289 289 289 290 290 290 291 291 291 291 292 292 292 293 293 293 293 294
290 289 289 288 288 287 287 287 287 286 286 286 286 285 285 285 287 288 289 289 289 288 287 286 286 286 286 286 286 286 286 286 287 287 287 287 287 287 287 287 287 287 288 288 288 288 288 288 288 288 288 288 288 288 289 289 289 289 290 290 290 290 291 291 291 291 292 292 292 292 292 292 293 293
290 289 289 288 288 287 287 286 286 286 286 286 285 285 284 284 286 288 289 289 288 287 286 286 287 287 287 287 287 287 286 286 287 287 287 287 287 287 287 287 287 287 287 288 288 288 288 288 288 288 288 288 288 288 289 289 289 289 289 289 290 290 290 290 290 291 291 291 291 291 291 291 291 291
289 289 288 288 287 287 286 286 287 287 287 286 285 284 284 284 285 287 288 288 287 287 287 287 287 287 287 287 287 286 286 286 287 287 287 287 287 287 287 287 287 287 287 287 288 288 288 288 288 288 288 288 288 288 288 288 288 289 289 289 289 289 289 289 290 290 290 291 291 290 290 290 290 290
289 288 288 287 287 287 287 287 287 287 287 286 285 284 284 284 285 287 288 288 288 287 287 287 287 287 287 287 287 286 286 287 287 287 287 287 287 287 287 287 287 287 287 288 288 288 288 288 288 288 288 288 288 288 288 288 289 289 289 289 289 290 290 290 290 291 291 291 291 290 289 289 289 289
289 288 287 287 287 287 287 287 287 287 287 286 285 284 284 284 286 288 289 289 289 289 288 287 287 287 287 287 287 286 286 287 287 287 287 287 287 287 287 287 287 287 288 288 288 288 288 288 288 288 288 288 288 288 288 289 289 289 289 289 289 290 290 291 291 291 291 291 290 290 290 290 289 289
288 287 287 287 287 287 287 287 287 287 287 286 285 284 283 284 286 288 289 290 290 289 288 287 287 287 287 287 287 287 286 287 287 287 287 287 287 287 287 287 288 288 288 288 288 288 288 288 288 288 288 288 288 288 288 289 289 289 289 289 290 290 290 291 291 291 291 290 290 290 291 291 290 290
287 287 287 287 287 287 287 287 287 287 286 285 284 284 283 283 285 287 289 290 290 289 289 288 287 287 287 287 287 287 287 287 287 287 287 287 287 287 288 288 288 288 288 288 288 288 288 288 288 288 288 288 288 288 288 289 289 289 289 290 290 290 290 290 290 290 290 290 290 290 291 291 292 291
287 287 287 287 287 288 288 288 287 287 286 285 284 283 283 283 284 286 289 290 290 289 289 289 288 288 288 287 287 287 287 287 287 287 287 288 288 288 288 288 288 288 288 288 288 288 288 289 289 289 289 289 289 289 289 289 289 289 290 290 289 289 289 289 289 289 289 289 290 290 291 291 292 291
Wind_Speed
11 11 12 12 12 11 10 11 12 12 13 13 13 12 8 7 5 2 2 2 6 11 14 15 16 16 16 15 13 12 13 12 10 9 8 9 9 8 7 6 6 6 6 6 6 5 4 3 4 5 5 5 5 6 6 8 9 10 11 12 13 15 14 14 13 13 15 18 21 26 27 26 25 25
11 11 12 12 12 12 11 11 12 11 12 12 13 14 13 10 8 6 4 2 4 9 13 15 15 15 15 15 14 13 13 13 11 10 10 10 9 8 7 7 7 7 7 7 6 6 5 4 4 5 5 6 7 7 8 8 9 10 10 11 11 14 15 15 14 13 13 15 18 22 26 28 29 30
8 10 11 10 10 10 9 9 10 9 9 10 11 12 14 15 13 11 8 3 4 8 11 12 13 13 13 13 13 13 12 12 11 11 11 10 9 8 8 8 8 7 7 7 7 6 6 5 5 6 6 7 8 9 9 9 9 10 11 11 11 12 14 15 15 14 13 14 15 17 21 25 29 32
6 8 9 9 9 8 7 7 7 8 8 8 9 11 12 14 14 13 12 8 4 7 9 10 12 12 12 12 13 13 12 11 11 10 9 9 8 8 8 8 8 7 7 7 7 7 7 6 6 6 7 7 8 9 9 9 9 10 10 11 11 11 12 13 15 15 14 14 15 15 15 17 21 27
4 5 7 8 7 6 5 5 5 6 7 7 8 9 10 13 13 12 14 11 6 6 7 9 11 12 11 12 14 14 13 12 12 10 9 8 8 8 8 8 8 7 7 7 7 7 7 7 7 6 7 7 7 7 8 8 8 8 8 9 9 10 10 11 12 13 14 14 14 13 13 14 15 18
2 2 3 5 6 6 5 4 4 4 5 5 6 7 8 11 12 12 12 10 7 6 6 8 10 11 12 13 14 15 15 14 13 12 11 10 10 9 9 9 9 8 8 8 8 8 8 8 8 8 7 7 7 7 7 7 7 7 7 8 8 7 8 8 9 11 12 13 13 13 13 13 14 14
3 3 3 3 3 4 3 4 4 4 4 3 4 5 6 8 9 10 10 10 9 8 7 8 10 12 12 13 14 15 15 15 14 14 13 12 11 11 11 11 11 10 10 9 9 9 9 9 9 9 9 9 9 9 9 9 8 8 8 9 8 8 8 7 7 8 9 11 12 14 14 15 15 16
7 6 5 5 4 4 4 4 4 4 4 3 3 4 4 4 6 7 8 9 8 8 8 7 9 11 11 12 14 15 16 16 15 15 15 14 14 15 15 15 15 14 12 11 10 10 10 10 11 11 12 12 12 12 12 12 12 11 11 11 11 11 11 10 9 8 8 9 10 11 13 15 16 17
10 10 9 8 8 7 7 6 5 5 5 4 3 3 2 2 3 4 5 7 7 7 7 7 7 9 10 11 14 16 17 17 16 17 17 17 18 20 20 20 19 17 14 12 12 11 11 11 12 13 13 14 14 14 14 14 14 14 14 14 13 13 13 13 12 12 11 10 10 11 12 13 15 16
13 13 12 11 11 11 10 9 8 7 6 6 6 5 4 3 2 2 4 5 5 6 7 6 7 8 10 11 13 15 18 18 17 19 21 20 21 23 23 24 23 19 16 15 15 14 15 15 15 15 15 15 15 15 15 15 15 15 16 16 16 16 16 15 15 15 15 14 14 14 14 14 14 15
15 14 14 14 14 14 14 13 12 11 10 9 9 7 6 6 5 3 1 3 2 3 5 6 7 8 9 11 13 14 16 16 17 21 24 24 26 27 26 27 25 19 17 18 19 20 22 22 21 19 18 16 15 15 14 14 15 15 16 16 16 17 18 18 19 18 18 19 18 18 18 17 17 17
16 16 16 16 16 16 16 16 16 14 13 12 11 10 8 8 7 4 1 1 1 3 5 6 7 8 9 11 13 14 16 16 17 19 21 23 26 28 29 28 24 20 21 22 24 27 28 28 27 25 22 20 18 17 15 14 14 14 14 15 15 17 18 19 20 21 22 22 22 22 22 22 21 21
18 17 18 19 19 18 18 18 19 18 16 15 13 12 11 10 8 4 1 1 2 4 6 6 7 8 10 11 13 15 16 15 16 17 18 20 22 26 29 28 22 20 23 27 30 33 32 31 30 28 25 23 21 19 17 15 14 14 13 14 15 16 17 18 19 21 22 23 24 25 26 26 26 25
18 18 18 18 19 19 19 19 21 21 20 18 16 13 11 9 7 4 2 1 3 4 5 5 7 9 10 11 12 13 13 14 15 16 18 19 22 24 27 27 25 23 25 30 35 36 33 31 30 28 26 25 22 20 19 16 14 13 13 14 15 15 16 17 17 18 19 21 22 24 25 26 27 27
16 15 15 15 16 17 19 20 21 22 23 20 17 13 10 8 6 4 3 3 4 4 4 4 6 7 9 10 11 12 13 15 16 17 18 19 21 21 20 20 24 27 28 31 35 36 33 29 27 27 26 24 22 20 18 16 12 11 12 13 13 13 13 14 15 15 16 17 18 19 21 22 23 25
13 12 13 13 14 15 17 18 19 21 23 20 16 13 11 9 8 5 5 5 5 4 4 4 5 6 8 10 11 12 13 15 16 17 18 18 19 20 18 18 23 29 30 30 31 34 33 27 25 27 26 23 20 17 15 12 10 10 11 12 11 10 12 13 13 14 14 15 16 17 18 19 20 21
11 12 13 14 14 14 15 16 17 19 20 18 16 14 13 11 8 6 5 6 6 6 6 6 5 7 9 10 11 12 13 14 16 17 19 20 19 20 20 21 25 28 27 24 24 28 31 27 24 26 25 21 17 15 12 11 10 11 11 11 10 11 12 13 14 14 14 14 15 16 17 17 18 19
11 12 13 13 13 12 13 14 14 15 17 18 17 14 12 9 7 6 5 5 5 6 7 7 7 8 10 10 11 12 13 14 16 17 18 20 20 20 20 21 24 24 22 20 17 19 26 27 24 24 24 21 19 17 15 14 13 12 11 11 11 12 14 15 16 16 15 15 15 16 16 16 16 17
11 11 12 12 12 11 11 12 12 12 16 18 16 13 10 8 6 5 4 4 5 6 7 8 9 9 10 10 11 12 14 14 15 16 17 18 18 19 19 20 22 21 18 17 15 15 20 23 22 23 25 24 24 21 17 15 13 11 11 10 11 13 15 17 18 18 17 16 16 16 16 16 15 15
11 11 11 10 10 9 9 9 8 12 16 17 14 12 9 7 5 5 5 5 6 7 8 9 9 9 10 11 11 12 13 14 15 15 15 16 16 16 17 19 21 19 17 18 18 17 17 17 19 22 25 25 25 23 19 15 11 9 10 10 11 14 16 16 17 17 17 17 17 17 18 17 17 15
9 9 8 7 6 6 6 6 9 12 14 13 11 9 7 5 5 5 5 6 7 8 9 9 9 9 10 11 12 13 13 13 13 13 14 15 15 14 14 14 15 18 20 20 16 14 15 16 19 21 24 23 22 22 19 13 8 8 9 11 14 16 16 16 17 16 16 17 17 18 19 19 18 17
5 4 3 2 2 3 5 7 9 10 9 9 8 6 4 3 4 5 5 6 7 8 9 9 9 10 11 11 12 12 12 12 12 13 15 16 16 16 14 13 15 19 19 14 11 12 15 18 19 20 21 21 19 17 13 9 8 11 13 15 18 18 17 17 16 16 17 18 18 18 18 19 20 19
1 2 3 3 3 5 6 7 7 6 5 5 4 3 4 4 4 5 6 7 8 8 9 10 10 11 11 12 12 12 12 12 13 14 16 17 17 18 18 17 15 13 9 7 11 17 18 17 17 17 16 15 14 11 10 11 14 17 17 19 20 19 18 19 17 17 19 19 19 19 18 18 20 20
4 5 6 6 6 6 6 6 5 3 2 2 2 3 4 4 5 6 7 8 9 10 10 11 11 12 12 12 13 13 14 15 15 16 16 16 17 19 20 19 16 13 12 15 18 20 19 17 16 16 14 13 13 14 16 19 19 18 18 20 20 19 18 18 18 19 20 20 21 20 18 17 18 19
6 7 7 7 6 5 4 3 1 0 1 3 4 4 5 5 6 7 8 9 9 10 10 11 11 12 13 14 15 16 16 17 16 16 15 15 16 18 20 21 21 20 21 21 20 21 21 20 18 18 17 17 19 21 21 21 20 19 18 19 19 19 18 18 19 20 20 21 22 21 19 17 16 16
8 7 7 6 5 3 1 1 2 3 4 5 5 5 5 5 6 6 7 8 8 9 10 11 12 13 15 16 17 18 18 18 17 17 17 17 18 19 20 22 23 24 24 22 21 22 23 21 19 18 18 19 21 23 22 21 20 19 17 16 16 17 18 20 21 21 22 24 23 21 18 15 14 14
9 8 6 5 3 2 2 3 3 3 3 3 3 3 4 4 4 5 6 7 9 11 12 14 15 16 17 18 19 19 19 19 19 19 21 21 22 23 23 24 25 26 26 25 24 23 24 23 20 19 20 21 23 22 21 21 20 18 17 18 18 19 20 21 22 22 22 23 22 19 16 14 13 13
8 6 5 3 2 1 1 1 2 2 2 3 3 3 3 4 5 7 8 10 12 13 15 16 17 18 18 19 19 20 20 21 22 23 24 25 25 26 26 26 26 26 27 27 26 24 24 24 22 21 21 23 23 22 20 21 21 21 21 21 20 22 22 21 21 21 22 23 22 18 16 17 17 15
7 5 4 3 2 2 2 2 2 3 3 3 4 4 5 7 8 10 11 12 14 15 16 17 18 18 19 19 20 22 23 23 23 24 23 23 22 22 22 21 21 22 23 24 24 22 22 22 22 22 22 22 24 24 23 23 23 22 21 21 22 23 24 23 22 22 21 21 19 17 17 19 19 17
6 5 5 4 4 4 3 3 3 3 4 4 6 7 8 10 11 11 13 14 15 16 16 17 18 19 20 21 21 22 21 20 19 18 17 18 17 17 17 17 17 18 17 17 19 20 20 20 21 22 22 21 22 23 23 23 23 22 21 22 22 21 21 22 21 19 17 16 16 18 20 20 19 18
7 7 7 6 6 5 4 3 3 4 5 6 7 8 9 10 11 12 13 14 15 16 16 15 16 18 20 19 18 17 16 16 15 14 15 16 17 16 17 17 18 19 17 17 20 21 20 19 19 20 21 21 21 21 22 22 24 24 22 22 21 20 20 20 20 20 20 20 20 22 22 20 19 18
9 9 9 8 6 5 3 4 5 6 6 7 8 9 10 11 13 14 15 15 15 14 13 13 14 15 16 16 15 15 15 15 15 15 16 17 17 16 16 17 18 19 19 20 21 21 19 19 19 19 20 21 21 22 22 23 23 24 23 22 21 22 23 22 22 24 25 23 22 23 23 22 21 18
11 11 9 7 5 4 5 6 7 7 8 8 9 10 12 13 14 15 15 16 16 14 12 12 13 14 15 15 15 16 16 16 16 17 18 17 16 16 16 17 18 19 20 21 21 20 19 19 19 20 20 21 22 23 23 23 23 23 23 23 21 22 24 23 23 24 24 22 22 24 25 24 22 18
11 10 8 6 5 5 6 7 7 8 9 10 11 12 13 14 15 16 16 16 17 17 15 14 15 15 15 16 16 16 17 17 17 18 18 18 18 18 18 18 19 19 19 20 21 20 19 19 19 20 20 21 22 23 22 22 23 24 23 22 22 23 25 24 23 23 23 23 22 23 24 25 21 16
10 8 6 6 5 6 6 6 7 8 9 11 12 14 14 14 16 18 18 18 18 17 16 16 16 15 16 16 16 17 19 19 19 19 19 18 18 19 18 19 19 19 19 21 21 21 20 20 20 19 19 19 18 19 19 19 22 23 22 20 20 22 24 24 23 23 23 22 21 20 21 22 19 14
9 7 6 6 5 5 5 5 7 8 9 11 13 14 15 16 18 19 20 20 19 17 16 16 16 16 16 17 18 19 20 20 20 20 19 19 19 19 19 19 20 20 20 21 21 21 21 21 19 17 15 13 11 11 12 14 15 17 19 20 20 20 22 22 20 20 19 19 18 18 18 18 17 13
9 7 6 6 5 4 5 5 6 8 9 11 13 15 16 18 20 20 20 20 20 19 18 18 18 17 17 17 18 19 19 20 20 19 19 19 19 19 19 19 20 20 20 20 21 21 21 20 19 17 13 9 8 8 10 13 14 13 14 18 21 21 20 19 17 17 16 15 15 15 16 17 15 11
9 7 6 5 4 3 4 5 6 8 10 13 15 17 18 19 19 20 20 20 21 21 21 20 19 17 17 18 19 20 21 21 20 20 20 19 18 18 19 19 19 20 20 20 20 21 21 20 20 18 14 9 7 7 9 11 11 10 10 13 16 17 16 15 14 15 15 13 13 13 13 14 12 8
8 7 5 5 4 3 4 5 7 9 12 15 17 19 20 20 20 20 20 21 22 21 20 20 19 19 20 22 23 23 22 22 21 21 20 20 19 19 19 19 19 19 19 19 20 20 20 19 19 19 18 15 12 13 14 15 16 16 16 16 15 17 18 16 14 13 13 12 10 8 7 7 7 5
7 6 5 4 3 3 3 5 8 11 13 16 18 20 20 21 21 20 20 21 21 21 21 20 21 22 22 24 24 24 23 22 22 22 22 21 21 21 20 20 20 19 19 19 20 19 19 20 20 20 20 20 20 20 21 20 20 21 21 17 14 15 16 15 14 15 14 12 8 5 7 7 7 7
6 5 5 4 3 2 3 6 9 11 14 17 19 20 20 21 21 20 20 20 21 22 22 22 22 23 24 25 25 24 22 22 23 23 23 22 23 23 23 22 21 20 19 19 19 20 21 22 22 21 20 20 20 18 15 13 13 14 15 14 11 10 10 11 12 13 12 10 7 7 7 6 7 8
5 6 5 4 2 2 5 7 10 12 15 17 19 20 21 21 20 20 20 20 22 23 24 23 23 24 25 26 26 24 22 22 23 24 24 23 23 23 23 21 19 19 18 18 19 22 24 24 23 21 20 19 17 13 9 8 10 11 12 12 11 10 9 9 9 9 8 8 8 8 6 4 5 5
6 6 5 3 1 3 6 8 11 13 15 18 19 21 21 21 20 20 20 21 22 24 24 24 25 25 26 27 27 25 24 23 23 24 24 23 23 22 21 20 20 19 19 19 21 23 24 23 21 19 17 15 13 11 10 11 11 10 10 10 10 10 9 6 6 8 7 7 9 9 5 3 3 2
7 7 5 2 1 4 7 9 12 13 16 18 20 20 21 21 21 20 20 20 22 24 25 25 25 25 26 27 27 27 25 25 24 24 24 24 24 22 21 21 22 21 20 20 20 20 20 19 17 16 14 12 11 11 11 10 9 8 8 9 7 5 2 3 6 7 7 7 7 6 4 2 0 1
8 6 4 1 2 5 8 10 12 14 17 19 20 20 21 21 21 20 19 20 22 24 25 25 25 26 26 27 27 26 26 26 26 26 25 25 25 24 22 22 21 20 19 18 17 17 17 15 13 12 11 10 9 9 9 8 7 7 6 5 2 4 7 9 10 11 10 8 5 2 1 2 1 5
Wind_Direction
90 94 96 97 99 96 92 89 81 78 78 76 76 76 89 132 150 114 61 58 53 54 54 52 48 46 49 52 52 55 56 53 48 51 52 47 43 34 28 27 21 15 14 16 24 27 19 356 339 340 344 344 339 329 322 315 311 305 297 287 275 270 270 267 266 261 252 247 248 251 249 242 244 248
97 97 98 97 98 97 92 88 84 82 79 73 71 70 72 91 119 123 116 98 65 61 55 50 44 41 44 49 53 57 57 55 52 52 51 47 41 29 21 23 19 17 16 15 20 27 29 18 3 356 351 349 348 342 337 330 324 320 314 304 287 271 265 266 265 262 258 250 246 252 254 250 248 248
106 103 103 104 104 100 91 85 82 81 81 74 70 70 69 71 82 101 114 109 71 70 61 51 44 39 38 42 49 53 53 51 50 51 52 50 41 30 28 28 25 24 22 18 17 18 20 17 7 359 352 347 343 339 335 331 325 322 319 317 308 286 266 260 260 259 258 255 251 251 254 254 251 249
115 111 109 109 111 110 97 85 80 79 84 85 79 75 73 71 70 79 92 100 95 82 64 48 44 38 31 31 37 42 44 42 39 38 40 41 36 32 31 28 25 24 22 18 14 10 9 10 4 357 351 345 342 336 332 329 326 323 321 319 318 309 288 268 259 256 255 256 256 253 251 251 251 250
130 127 117 113 114 119 109 88 79 81 86 89 87 81 76 77 73 71 84 99 108 93 67 45 42 37 29 30 31 30 31 31 28 24 21 20 18 18 17 13 11 11 9 7 6 4 2 2 359 355 349 344 343 341 338 336 332 327 323 321 319 319 311 293 276 265 259 257 259 258 253 249 247 246
176 174 145 127 121 122 120 106 100 101 99 94 87 82 74 75 72 67 76 90 94 85 67 44 39 35 29 29 28 24 22 22 20 18 18 17 13 10 7 2 355 351 347 345 344 343 342 343 342 342 340 338 335 334 335 335 333 327 323 320 318 317 318 312 299 285 273 265 262 261 259 255 252 249
250 239 218 191 158 147 144 129 126 130 127 117 99 87 73 66 67 62 60 67 71 69 58 37 29 30 27 24 23 20 16 14 14 14 15 15 16 14 9 4 358 350 342 335 330 327 323 322 322 322 322 322 320 317 317 316 316 314 311 309 308 307 305 305 304 297 286 276 269 264 262 260 258 257
263 258 248 242 235 215 198 178 161 158 156 149 131 110 89 68 68 62 47 44 51 55 52 38 24 22 22 19 15 10 8 8 8 9 8 6 7 6 4 3 1 356 351 344 336 331 327 324 322 321 318 315 311 307 304 302 300 299 298 296 295 294 292 288 286 286 283 279 274 269 266 265 263 261
268 267 262 255 251 244 230 216 202 191 188 183 169 154 142 122 98 80 51 35 35 40 43 41 23 13 12 11 7 3 2 2 1 1 1 360 359 357 356 358 359 357 354 350 344 338 335 334 333 330 326 320 314 308 303 299 296 293 291 289 287 286 285 282 280 278 277 275 274 272 269 267 266 264
270 269 269 264 257 252 244 234 224 216 213 209 204 199 193 194 183 126 54 24 19 28 32 29 16 7 2 2 1 359 359 359 356 355 354 353 353 351 350 351 354 354 350 346 344 340 336 335 333 331 329 325 319 312 306 300 296 293 290 288 286 284 282 280 279 278 278 278 278 278 278 275 271 267
272 271 269 267 262 258 255 247 238 232 229 226 221 215 208 207 206 195 17 347 342 15 19 10 4 1 357 357 356 355 357 357 355 354 353 349 346 346 346 347 348 348 345 341 338 335 333 332 331 330 328 327 324 318 312 306 300 296 292 289 286 284 282 280 279 279 279 280 280 281 282 281 280 276
274 275 273 270 265 262 260 257 252 246 241 236 229 222 218 213 209 205 206 278 337 3 358 351 350 349 348 350 350 350 354 357 355 355 353 346 342 340 341 342 344 342 339 336 332 330 330 329 329 330 329 329 329 324 320 315 309 302 296 291 287 285 284 282 281 280 280 280 281 281 282 282 282 280
277 278 278 276 270 266 263 261 259 257 252 248 240 231 224 217 211 207 186 89 15 356 345 341 337 334 339 346 348 350 353 355 351 347 345 342 340 337 335 336 339 337 334 331 327 327 329 328 328 329 329 330 331 329 326 324 318 311 302 294 290 289 289 289 288 287 285 284 282 281 281 282 281 280
278 278 278 276 274 272 267 260 258 256 253 251 247 242 234 224 223 234 252 306 328 322 321 327 327 329 337 345 350 349 346 344 340 338 340 339 337 337 335 333 332 332 331 329 325 324 327 329 327 327 329 331 332 330 327 326 322 317 307 298 295 296 297 298 299 299 296 293 289 285 283 281 279 277
283 283 282 279 276 275 271 263 256 253 251 248 244 238 229 220 227 246 261 275 287 291 302 318 324 328 332 336 339 337 334 332 331 332 334 335 334 336 336 328 323 325 327 327 324 321 323 327 326 325 328 331 331 329 324 321 318 314 310 305 301 302 304 306 308 309 309 306 302 296 289 285 279 274
290 292 292 289 284 281 278 272 261 252 247 242 233 221 210 209 219 229 244 263 275 280 290 303 309 314 318 321 322 323 323 322 323 323 324 327 328 327 323 314 312 318 324 326 323 318 320 326 326 324 327 331 332 329 322 315 305 302 311 310 304 303 307 309 313 315 317 317 315 309 301 293 286 277
289 292 292 292 290 288 284 278 269 256 242 227 214 206 203 207 214 226 249 267 273 276 279 281 287 296 302 305 307 311 314 314 316 317 317 319 319 315 313 309 309 316 323 326 322 316 317 324 326 323 326 332 334 332 326 316 302 296 302 302 296 301 307 309 312 314 317 321 321 318 314 305 296 286
283 287 289 290 290 290 287 282 274 254 229 209 201 199 200 205 216 232 255 265 270 276 280 281 284 288 290 293 298 304 307 308 310 312 311 313 312 309 308 306 307 313 319 324 323 311 312 322 325 322 327 330 328 326 322 316 308 296 290 287 288 299 308 310 312 312 314 317 319 321 322 318 308 296
282 285 289 292 294 292 287 283 272 240 211 199 196 197 201 211 219 225 240 258 275 283 285 287 288 287 288 293 297 300 303 305 305 305 305 306 307 307 306 305 307 310 312 319 320 300 303 320 325 322 325 326 322 322 321 318 313 295 280 279 286 300 310 313 313 312 312 312 313 317 322 325 323 311
284 288 293 296 296 289 280 271 248 215 202 197 197 199 202 206 212 225 247 266 278 282 283 286 289 289 291 296 300 302 303 304 304 302 300 302 304 304 303 304 306 308 309 316 314 295 296 320 324 318 321 322 319 319 321 322 315 293 281 283 293 306 315 317 317 317 315 311 308 308 313 320 327 324
290 294 300 304 297 281 260 227 199 195 199 200 199 198 198 205 228 251 267 276 278 279 284 289 293 296 299 301 304 306 307 306 305 301 298 304 306 302 300 301 301 303 308 314 312 293 294 315 320 313 316 318 315 314 319 325 321 305 296 295 301 310 315 317 318 318 318 316 310 305 305 309 317 324
309 319 334 337 285 232 193 178 177 184 197 202 198 200 216 240 260 270 276 282 284 286 293 299 301 302 304 305 306 307 306 305 305 301 300 306 306 299 294 294 296 302 307 313 312 297 299 313 318 315 314 312 307 307 314 322 317 309 304 301 303 307 309 311 312 313 317 320 317 311 306 303 307 315
32 67 98 118 157 171 163 164 172 179 194 209 218 246 267 268 266 272 280 285 289 294 298 300 301 302 303 304 304 303 301 301 301 299 300 301 299 295 293 292 296 301 301 306 313 306 303 309 314 315 315 311 306 303 303 303 304 303 302 302 301 299 300 302 303 306 312 316 317 316 310 303 303 306
136 134 136 138 147 158 163 169 177 184 207 250 272 280 283 280 278 285 293 295 298 302 303 304 305 306 306 305 304 302 301 301 301 298 296 292 291 293 294 292 287 280 280 297 310 307 301 302 304 303 301 295 293 296 297 298 301 302 302 302 299 297 299 298 298 303 307 310 314 315 310 303 302 302
158 151 149 145 146 155 163 167 181 249 313 317 314 312 312 311 307 305 305 305 307 308 308 308 309 309 308 306 306 305 305 305 304 300 293 287 285 289 294 293 288 281 284 297 307 304 297 295 295 296 292 285 284 290 294 296 296 297 300 301 298 298 300 297 296 299 302 305 307 307 305 302 298 297
169 166 163 160 158 168 198 264 290 300 307 312 316 319 320 319 317 314 311 311 312 312 312 313 313 311 311 309 308 307 307 306 305 300 294 289 284 283 286 289 288 286 288 294 300 297 292 288 289 292 292 288 288 289 291 293 294 295 298 299 296 297 299 297 294 294 297 301 302 300 300 302 299 295
171 167 167 170 179 218 274 294 304 314 324 330 338 341 335 329 324 318 315 314 314 315 316 316 314 313 312 311 310 309 307 304 302 298 294 292 289 286 284 284 283 284 286 289 289 286 284 283 283 284 286 288 290 289 287 289 292 292 292 292 291 293 295 294 292 291 292 295 296 295 294 298 303 301
171 166 164 167 179 240 327 2 15 24 32 27 19 8 349 335 326 321 320 320 318 318 318 316 315 313 312 311 309 307 304 301 298 295 293 292 291 289 287 284 282 282 283 283 282 280 280 280 280 279 281 284 285 285 286 287 288 288 289 289 288 288 289 289 288 287 286 287 289 290 294 300 305 305
169 169 167 158 142 125 104 96 81 57 47 31 9 354 340 332 328 326 325 323 321 320 319 316 314 311 309 308 307 304 303 300 298 296 296 296 295 294 292 290 286 283 282 282 282 282 280 278 279 280 280 279 278 280 283 284 283 283 283 282 281 281 282 282 284 284 283 282 280 280 289 300 304 304
168 163 157 150 139 130 118 100 74 46 26 1 344 339 334 333 333 332 330 327 325 322 319 314 310 307 306 306 305 305 304 303 302 303 303 304 305 304 303 300 295 291 286 285 290 291 286 283 284 282 279 277 275 274 276 278 280 279 277 275 276 279 281 281 283 282 278 273 271 276 286 294 297 299
163 152 144 139 131 122 109 78 41 17 359 346 342 342 340 339 337 333 330 326 324 321 317 311 306 306 308 309 309 308 308 307 307 309 310 309 308 307 306 303 299 297 294 293 298 300 296 291 289 285 279 276 274 273 274 275 277 279 278 276 275 277 278 279 279 277 276 276 278 283 288 289 290 293
152 147 142 133 123 108 81 47 21 8 1 357 353 348 343 339 336 333 332 331 329 326 321 316 314 314 316 315 312 311 310 307 307 309 311 309 306 305 304 300 297 299 299 299 301 302 298 294 292 287 281 276 275 276 277 276 276 278 279 279 277 274 274 275 275 277 280 282 284 287 289 288 289 290
149 144 137 127 114 81 46 30 21 15 8 1 354 349 347 346 346 348 349 348 343 338 331 325 322 321 319 315 313 312 309 305 305 308 308 304 300 298 295 289 289 293 297 298 299 300 298 296 294 290 284 278 275 275 274 274 275 275 275 277 278 278 277 276 274 277 281 281 283 287 288 287 288 289
149 143 131 111 85 56 40 33 27 19 6 357 354 354 356 357 358 357 357 353 346 340 334 326 321 318 316 313 312 311 309 307 306 306 303 299 295 292 287 283 284 288 290 292 294 296 297 297 296 293 289 284 280 276 271 269 270 272 273 275 276 277 279 278 276 276 278 279 280 283 284 286 288 286
145 140 124 101 76 53 45 39 26 13 3 360 359 358 359 1 359 356 354 351 345 337 329 323 319 316 315 312 311 310 309 307 306 303 300 298 294 290 286 284 285 287 288 289 290 292 294 296 295 292 290 288 286 281 276 269 266 267 272 275 275 275 277 278 277 276 277 278 278 276 277 282 285 282
136 129 116 102 82 57 48 37 19 8 5 4 2 358 355 354 354 353 353 351 346 338 329 323 319 317 315 312 310 308 307 306 303 301 300 299 295 292 289 286 284 286 286 285 286 289 291 291 290 287 286 288 287 285 284 279 272 270 272 274 276 279 281 283 285 284 281 281 279 273 270 273 278 279
134 129 117 103 88 65 47 28 14 11 8 4 0 356 352 350 350 352 352 350 348 343 337 329 322 317 313 312 310 309 308 306 302 299 299 298 295 293 290 287 286 287 286 284 285 288 288 288 286 281 278 281 285 283 285 287 285 281 273 269 274 282 285 287 289 289 287 288 286 278 270 268 268 267
138 134 120 104 90 70 44 23 14 13 8 2 359 356 351 349 349 350 350 350 348 344 337 330 323 317 316 318 318 315 311 308 304 301 299 298 294 291 289 287 287 287 287 286 287 287 285 284 281 276 271 271 276 281 287 291 289 284 274 270 277 287 292 291 291 289 290 295 295 285 271 259 251 239
135 130 119 106 94 71 45 24 14 9 6 2 359 355 352 349 348 348 350 349 344 338 332 326 324 324 327 329 326 320 313 308 305 302 300 298 295 292 290 288 287 288 288 286 286 287 284 279 276 272 268 265 266 273 281 285 284 284 284 282 281 283 285 288 290 291 296 304 301 280 244 220 207 185
132 125 117 111 100 75 39 17 8 5 3 0 357 354 352 349 347 348 348 345 338 333 331 331 330 331 333 332 328 321 313 310 307 304 302 301 299 296 294 291 289 288 287 284 284 284 281 278 278 278 276 274 277 281 283 282 282 285 287 289 286 279 275 277 279 279 286 296 287 227 180 165 156 150
135 129 126 125 111 58 14 4 2 1 360 357 353 351 351 350 348 347 346 344 340 337 337 336 334 333 334 333 329 322 315 311 309 307 306 304 301 299 298 294 289 286 283 281 280 281 282 285 289 290 288 286 285 284 280 275 277 283 288 294 299 290 276 272 267 261 267 276 253 196 167 155 148 142
139 134 134 136 116 19 359 357 358 358 355 351 349 349 350 350 348 347 346 347 347 345 342 338 336 335 335 335 331 324 317 312 311 310 309 306 302 300 298 294 289 285 281 279 280 284 289 293 296 296 294 290 282 271 260 261 269 279 287 294 300 300 293 282 258 240 248 258 233 197 167 146 144 140
143 145 147 147 89 360 353 356 358 354 348 345 346 349 350 347 345 345 347 348 350 348 343 339 338 337 336 335 333 328 322 316 313 312 311 308 304 301 298 295 293 291 286 283 285 290 295 298 300 300 296 288 274 259 253 259 268 274 281 290 297 301 301 285 232 215 224 231 222 213 195 146 129 165
150 155 159 154 8 353 354 357 355 348 343 343 345 347 347 344 343 344 347 349 350 348 343 340 338 337 336 336 333 330 326 322 318 316 314 313 311 307 304 302 301 299 295 291 290 294 298 300 302 301 294 282 268 256 251 255 264 271 277 286 292 285 239 158 160 172 176 180 193 211 215 200 297 313
160 167 170 176 346 353 358 356 349 343 342 343 344 345 344 343 343 345 348 351 350 346 344 342 339 337 337 336 333 329 327 327 326 323 321 320 318 315 312 310 307 304 301 298 294 294 298 302 302 299 293 283 272 260 252 254 265 272 273 274 248 158 138 130 129 126 120 116 117 125 181 204 125 114